Location: Heidgraben
(53.7081°N, 9.6576°E)
Time: 08:37:36
(UTC+00:00)

Cosmos 2333 Rocket - Pass Details

Date: 05 July 2020
Orbit: 837 x 864 km, 70.8° (Epoch: 14 August)

Event Time Altitude Azimuth Distance (km) Brightness Sun altitude
Rises 20:41:17 0° 186° (S) 3,393 4.9 -5.7°
Reaches altitude 10° 20:43:49 10° 179° (S) 2,466 4.2 -6.0°
Maximum altitude 20:49:07 42° 110° (ESE) 1,198 2.7 -6.4°
Drops below altitude 10° 20:54:28 10° 42° (NE) 2,499 4.8 -6.9°
Sets 20:57:03 0° 36° (NE) 3,444 5.7 -7.1°
